{"data":{"norad_id":40701,"intl_designator":"2015-030A","name":"GAOFEN-8","alt_names":[],"object_type":"PAYLOAD","status":"ACTIVE","operator":null,"country":"PRC","launch_date":"2015-06-26","launch_site_code":"TAISC","launch_vehicle":null,"mission":null,"orbit_class":"UNKNOWN","rcs_meters":5.0119,"size_class":null,"mass_kg":null,"dimensions":null,"purposes":["earth_obs"],"wikipedia_slug":null,"has_3d_model":false,"image_url":null,"decayed_at":null,"tle_current":{"epoch":"2026-09-20T04:50:14.102304Z","epoch_age_seconds":33588,"freshness":"FRESH","line1":"1 40701U 15030A   26263.20155211  .00012603  00000+0  23329-3 0  9990","line2":"2 40701  97.6857 102.4984 0007379 202.8753 157.2169 15.49145856626145","mean_motion":15.49145856,"eccentricity":0.0007379,"inclination_deg":97.6857,"raan_deg":102.4984,"arg_perigee_deg":202.8753,"mean_anomaly_deg":157.2169,"bstar":0.00023329,"rev_number":62614,"period_min":92.954449345278,"perigee_km":414.20769822835,"apogee_km":424.23924281074,"semimajor_km":6797.3604705195,"source":"CELESTRAK","updated_at":"2026-09-20T09:00:33.964133Z"}}}